Location: Bois Neuf
(42.7667°N, 0.6333°E)
Time: 07:38:12
(UTC+00:00)

Cosmos 1515 Rocket - Pass Details

Date: 07 June 2020
Orbit: 605 x 631 km, 82.5° (Epoch: 12 July)

Event Time Altitude Azimuth Distance (km) Brightness Sun altitude
Rises 03:23:34 0° 355° (N) 2,891 7.6 -8.9°
Reaches altitude 10° 03:25:50 10° 359° (N) 1,978 6.8 -8.6°
Maximum altitude 03:30:10 61° 80° (E) 693 4.1 -8.1°
Drops below altitude 10° 03:34:26 10° 161° (SSE) 1,951 5.9 -7.5°
Sets 03:36:40 0° 165° (SSE) 2,848 6.7 -7.2°
